Location: New Town
(33.2710°N, 90.7534°W)
Time: 12:48:02
(UTC+00:00)

Altair - Visible Passes

Search period start: 08 May 2021 00:00
Search period end: 18 May 2021 00:00
Orbit: 1501 x 1683 km, 47.2° (Epoch: 07 May)

Date Brightness Start Highest point End Pass type
(mag) Time Alt. Az. Time Alt. Az. Time Alt. Az.
08 May 8.2 05:33:40 42° ENE 05:33:40 42° ENE 05:40:02 10° ENE visible
08 May 8.0 07:31:37 39° WNW 07:35:15 55° NNW 07:45:02 10° NE visible
08 May 8.8 09:33:02 10° WNW 09:42:05 36° N 09:50:55 10° ENE visible
09 May 8.3 05:09:00 37° ENE 05:09:00 37° ENE 05:14:45 10° ENE visible
09 May 8.0 07:06:56 45° WNW 07:09:57 58° NNW 07:19:49 10° NE visible
09 May 8.8 09:07:36 10° WNW 09:16:42 36° N 09:25:35 10° ENE visible
10 May 8.4 04:44:12 33° E 04:44:12 33° E 04:49:28 10° ENE visible
10 May 7.9 06:42:07 50° WNW 06:44:39 61° NNW 06:54:36 10° NE visible
10 May 8.8 08:42:10 10° WNW 08:51:18 37° N 09:00:15 10° ENE visible
11 May 8.5 04:19:10 31° E 04:19:10 31° E 04:24:09 10° ENE visible
11 May 7.8 06:17:05 53° W 06:19:22 65° NNW 06:29:24 10° NE visible
11 May 8.7 08:16:43 10° WNW 08:25:55 37° N 08:34:56 10° ENE visible
11 May 8.7 10:23:34 10° NW 10:33:02 44° NNE 10:42:10 10° E visible
12 May 8.5 03:53:48 30° E 03:53:48 30° E 03:58:49 10° ENE visible
12 May 7.7 05:51:40 54° W 05:54:05 69° NNW 06:04:11 10° NE visible
12 May 8.7 07:51:16 10° WNW 08:00:31 38° N 08:09:37 10° ENE visible
12 May 8.7 09:58:16 10° NW 10:07:42 42° NNE 10:16:47 10° E visible
13 May 8.3 03:27:43 31° E 03:27:43 31° E 03:33:27 10° ENE visible
13 May 7.7 05:25:29 48° WSW 05:28:49 73° NNW 05:38:58 10° NE visible
13 May 8.7 07:25:49 10° WNW 07:35:09 39° N 07:44:19 10° NE visible
13 May 8.8 09:32:57 10° NW 09:42:20 41° NNE 09:51:25 10° E visible
14 May 8.0 02:50:32 10° S 02:59:16 35° SE 03:08:03 10° ENE visible
14 May 7.6 04:53:24 10° WSW 05:03:33 78° NW 05:13:45 10° NE visible
14 May 8.6 07:00:22 10° W 07:09:45 40° NNW 07:19:01 10° NE visible
14 May 8.8 09:07:38 10° NW 09:16:59 40° NNE 09:26:02 10° E visible
15 May 8.1 02:25:44 10° S 02:34:08 31° SE 02:42:38 10° ENE visible
15 May 7.6 04:28:09 10° SW 04:38:18 83° NW 04:48:31 10° NE visible
15 May 8.6 06:34:56 10° W 06:44:23 41° NNW 06:53:44 10° NE visible
15 May 8.8 08:42:18 10° NW 08:51:36 39° N 09:00:39 10° ENE visible
16 May 8.2 02:00:59 10° S 02:09:02 28° SE 02:17:08 10° ENE visible
16 May 7.5 04:02:55 10° SW 04:13:03 88° NW 04:23:18 10° NE visible
16 May 8.6 06:09:30 10° W 06:19:00 42° NNW 06:28:27 10° NE visible
16 May 8.8 08:16:57 10° WNW 08:26:13 38° N 08:35:15 10° ENE visible
16 May 8.0 10:22:32 10° NW 10:32:34 71° NNE 10:42:13 10° ESE visible
17 May 8.4 01:36:19 10° S 01:43:56 25° SE 01:51:37 10° ENE visible
17 May 7.5 03:37:44 10° SW 03:47:50 87° SE 03:58:04 10° NE visible
17 May 8.5 05:44:04 10° W 05:53:38 44° NNW 06:03:10 10° NE visible
17 May 8.8 07:51:35 10° WNW 08:00:50 37° N 08:09:52 10° ENE visible
17 May 8.0 09:57:17 10° NW 10:07:19 66° NNE 10:16:58 10° ESE visible
